Time,TemperatureF,DewpointF,PressureIn,WindDirection,WindDirectionDegrees,WindSpeedMPH,WindSpeedGustMPH,Humidity,HourlyPrecipIn,Conditions,Clouds,dailyrainin,SolarRadiationWatts/m^2,SoftwareType,DateUTC
2013-03-01 00:00:00,36.9,20.4,30.33,NNE,16,5.0,15.0,51,0.00,CLR,OVC,0.00,0.0,WeatherDisplay:10.37,2013-03-01 00:00:00,
2013-03-01 00:15:00,36.7,20.7,30.33,North,3,12.0,21.0,52,0.00,,OVC,0.00,0.0,WeatherDisplay:10.37,2013-03-01 00:15:00,
2013-03-01 00:30:00,36.7,21.1,30.33,NNE,24,7.0,14.0,53,0.00,CLR,OVC,0.00,0.0,WeatherDisplay:10.37,2013-03-01 00:30:00,
2013-03-01 00:45:00,36.5,21.4,30.33,NNE,26,3.0,16.0,54,0.00,CLR,OVC,0.00,0.0,WeatherDisplay:10.37,2013-03-01 00:45:00,
2013-03-01 01:00:00,36.5,21.8,30.33,North,6,5.0,12.0,55,0.00,CLR,OVC,0.00,0.0,WeatherDisplay:10.37,2013-03-01 01:00:00,
2013-03-01 01:15:00,36.5,22.3,30.33,NNE,25,6.0,17.0,56,0.00,CLR,OVC,0.00,0.0,WeatherDisplay:10.37,2013-03-01 01:15:00,
2013-03-01 01:30:00,36.5,22.7,30.33,NNE,12,3.0,13.0,57,0.00,CLR,OVC,0.00,0.0,WeatherDisplay:10.37,2013-03-01 01:30:00,
2013-03-01 01:45:00,36.7,23.3,30.33,NNE,22,5.0,13.0,58,0.00,CLR,OVC,0.00,0.0,WeatherDisplay:10.37,2013-03-01 01:45:00,
2013-03-01 02:00:00,36.7,23.7,30.33,North,11,2.0,14.0,59,0.00,CLR,OVC,0.00,0.0,WeatherDisplay:10.37,2013-03-01 02:00:00,
2013-03-01 02:15:00,36.9,23.9,30.33,NNE,16,2.0,7.0,59,0.00,CLR,OVC,0.00,0.0,WeatherDisplay:10.37,2013-03-01 02:15:00,
2013-03-01 02:30:00,36.9,23.9,30.33,NNE,15,1.0,15.0,59,0.00,CLR,OVC,0.00,0.0,WeatherDisplay:10.37,2013-03-01 02:30:00,
2013-03-01 02:45:00,37.0,23.6,30.33,NNE,16,6.0,12.0,58,0.00,CLR,OVC,0.00,0.0,WeatherDisplay:10.37,2013-03-01 02:45:00,
2013-03-01 03:00:00,37.2,23.4,30.33,NW,326,0.0,16.0,57,0.00,CLR,OVC,0.00,0.0,WeatherDisplay:10.37,2013-03-01 03:00:00,
2013-03-01 03:15:00,37.2,23.4,30.33,WNW,292,0.0,5.0,57,0.00,CLR,OVC,0.00,0.0,WeatherDisplay:10.37,2013-03-01 03:15:00,
2013-03-01 03:30:00,37.2,23.4,30.30,WNW,292,0.0,3.0,57,0.00,CLR,OVC,0.00,0.0,WeatherDisplay:10.37,2013-03-01 03:30:00,
2013-03-01 03:45:00,37.4,23.5,30.30,North,2,0.0,6.0,57,0.00,CLR,OVC,0.00,0.0,WeatherDisplay:10.37,2013-03-01 03:45:00,
2013-03-01 04:00:00,37.4,23.5,30.30,NNE,22,0.0,8.0,57,0.00,CLR,OVC,0.00,0.0,WeatherDisplay:10.37,2013-03-01 04:00:00,
2013-03-01 04:15:00,37.4,24.0,30.30,NNE,20,0.0,7.0,58,0.00,CLR,OVC,0.00,0.0,WeatherDisplay:10.37,2013-03-01 04:15:00,
2013-03-01 04:30:00,37.4,24.4,30.30,North,9,0.0,3.0,59,0.00,CLR,OVC,0.00,0.0,WeatherDisplay:10.37,2013-03-01 04:30:00,
2013-03-01 04:45:00,37.2,25.0,30.30,North,351,0.0,5.0,61,0.00,CLR,OVC,0.00,0.0,WeatherDisplay:10.37,2013-03-01 04:45:00,
2013-03-01 05:00:00,37.2,25.4,30.30,North,8,0.0,7.0,62,0.00,CLR,OVC,0.00,0.0,WeatherDisplay:10.37,2013-03-01 05:00:00,
2013-03-01 05:15:00,37.0,25.6,30.30,NNW,338,0.0,5.0,63,0.00,CLR,OVC,0.00,0.0,WeatherDisplay:10.37,2013-03-01 05:15:00,
2013-03-01 05:31:00,37.0,26.0,30.30,NNW,341,0.0,4.0,64,0.00,CLR,OVC,0.00,0.0,WeatherDisplay:10.37,2013-03-01 05:31:00,
2013-03-01 05:45:00,37.0,26.7,30.30,NNW,338,0.0,5.0,66,0.00,CLR,OVC,0.00,0.0,WeatherDisplay:10.37,2013-03-01 05:45:00,
2013-03-01 06:00:00,36.9,26.6,30.30,NNW,337,0.0,2.0,66,0.00,CLR,OVC,0.00,0.0,WeatherDisplay:10.37,2013-03-01 06:00:00,
2013-03-01 06:15:00,36.9,27.3,30.30,NNW,341,0.0,3.0,68,0.00,CLR,OVC,0.00,0.0,WeatherDisplay:10.37,2013-03-01 06:15:00,
2013-03-01 06:30:00,37.0,27.8,30.30,NNW,340,0.0,5.0,69,0.00,CLR,OVC,0.00,0.0,WeatherDisplay:10.37,2013-03-01 06:30:00,
2013-03-01 06:45:00,37.0,28.2,30.30,NNW,348,0.0,7.0,70,0.00,CLR,OVC,0.00,0.0,WeatherDisplay:10.37,2013-03-01 06:45:00,
2013-03-01 07:00:00,37.2,28.7,30.30,NNW,338,0.0,5.0,71,0.00,CLR,OVC,0.00,0.0,WeatherDisplay:10.37,2013-03-01 07:00:00,
2013-03-01 07:15:00,37.4,28.9,30.30,NNW,347,0.0,0.0,71,0.00,CLR,OVC,0.00,0.0,WeatherDisplay:10.37,2013-03-01 07:15:00,
2013-03-01 07:30:00,37.6,29.4,30.30,NNE,22,0.0,0.0,72,0.00,CLR,OVC,0.00,0.0,WeatherDisplay:10.37,2013-03-01 07:30:00,
2013-03-01 07:45:00,37.8,29.9,30.30,NNE,22,0.0,0.0,73,0.00,CLR,OVC,0.00,0.0,WeatherDisplay:10.37,2013-03-01 07:45:00,
2013-03-01 08:00:00,38.1,30.6,30.30,North,2,0.0,0.0,74,0.00,CLR,OVC,0.00,0.0,WeatherDisplay:10.37,2013-03-01 08:00:00,
2013-03-01 08:15:00,38.5,30.9,30.30,North,356,0.0,0.0,74,0.00,CLR,OVC,0.00,0.0,WeatherDisplay:10.37,2013-03-01 08:15:00,
2013-03-01 08:30:00,39.0,31.8,30.33,NNE,22,0.0,0.0,75,0.00,CLR,OVC,0.00,0.0,WeatherDisplay:10.37,2013-03-01 08:30:00,
2013-03-01 08:45:00,40.6,34.3,30.33,North,11,2.0,7.0,78,0.00,CLR,OVC,0.00,0.0,WeatherDisplay:10.37,2013-03-01 08:45:00,
2013-03-01 09:00:00,41.5,35.2,30.30,NNE,25,2.0,8.0,78,0.00,CLR,OVC,0.00,0.0,WeatherDisplay:10.37,2013-03-01 09:00:00,
2013-03-01 09:15:00,41.7,34.7,30.33,North,359,6.0,13.0,76,0.00,CLR,OVC,0.00,0.0,WeatherDisplay:10.37,2013-03-01 09:15:00,
2013-03-01 09:30:00,41.5,34.2,30.33,NNE,15,0.0,13.0,75,0.00,CLR,OVC,0.00,0.0,WeatherDisplay:10.37,2013-03-01 09:30:00,
2013-03-01 09:45:00,42.3,34.9,30.36,NNE,19,2.0,22.0,75,0.00,CLR,OVC,0.00,0.0,WeatherDisplay:10.37,2013-03-01 09:45:00,
2013-03-01 10:00:00,42.4,34.0,30.33,NNE,27,2.0,18.0,72,0.00,CLR,OVC,0.00,0.0,WeatherDisplay:10.37,2013-03-01 10:00:00,
2013-03-01 10:15:00,43.0,33.5,30.33,NNE,15,6.0,13.0,69,0.00,CLR,OVC,0.00,0.0,WeatherDisplay:10.37,2013-03-01 10:15:00,
2013-03-01 10:30:00,42.5,31.9,30.30,NNE,24,3.0,14.0,66,0.00,CLR,OVC,0.00,0.0,WeatherDisplay:10.37,2013-03-01 10:30:00,
2013-03-01 10:45:00,43.0,31.6,30.33,NNE,18,5.0,18.0,64,0.00,CLR,OVC,0.00,0.0,WeatherDisplay:10.37,2013-03-01 10:45:00,
2013-03-01 11:00:00,42.6,30.5,30.33,NNE,27,7.0,13.0,62,0.00,CLR,OVC,0.00,0.0,WeatherDisplay:10.37,2013-03-01 11:00:00,
2013-03-01 11:15:00,42.8,29.9,30.33,NE,46,3.0,14.0,60,0.00,CLR,OVC,0.00,0.0,WeatherDisplay:10.37,2013-03-01 11:15:00,
2013-03-01 11:30:00,43.3,29.5,30.33,NNE,26,2.0,16.0,58,0.00,CLR,OVC,0.00,0.0,WeatherDisplay:10.37,2013-03-01 11:30:00,
2013-03-01 11:45:00,44.2,27.7,30.33,NNE,16,7.0,16.0,52,0.00,CLR,OVC,0.00,0.0,WeatherDisplay:10.37,2013-03-01 11:45:00,
2013-03-01 12:00:00,45.6,27.0,30.33,NNE,23,2.0,15.0,48,0.00,CLR,OVC,0.00,0.0,WeatherDisplay:10.37,2013-03-01 12:00:00,
2013-03-01 12:15:00,46.0,24.2,30.33,NE,35,9.0,21.0,42,0.00,CLR,OVC,0.00,0.0,WeatherDisplay:10.37,2013-03-01 12:15:00,
2013-03-01 12:45:00,42.8,24.4,30.33,NNE,19,9.0,25.0,48,0.00,CLR,OVC,0.00,0.0,WeatherDisplay:10.37,2013-03-01 12:45:00,
2013-03-01 13:00:00,42.3,25.4,30.33,NE,45,5.0,16.0,51,0.00,CLR,OVC,0.00,0.0,WeatherDisplay:10.37,2013-03-01 13:00:00,
2013-03-01 13:15:00,43.8,27.3,30.33,NNE,28,3.0,18.0,52,0.00,BKN,OVC,0.00,0.0,WeatherDisplay:10.37,2013-03-01 13:15:00,
2013-03-01 13:30:00,44.8,25.8,30.33,NE,35,6.0,17.0,47,0.00,CLR,OVC,0.00,0.0,WeatherDisplay:10.37,2013-03-01 13:30:00,
2013-03-01 13:45:00,44.2,24.2,30.33,NE,43,6.0,16.0,45,0.00,CLR,OVC,0.00,0.0,WeatherDisplay:10.37,2013-03-01 13:45:00,
2013-03-01 14:00:00,44.1,20.0,30.30,NNE,26,8.0,19.0,38,0.00,CLR,OVC,0.00,0.0,WeatherDisplay:10.37,2013-03-01 14:00:00,
2013-03-01 14:15:00,44.6,20.5,30.30,NNE,22,7.0,18.0,38,0.00,CLR,OVC,0.00,0.0,WeatherDisplay:10.37,2013-03-01 14:15:00,
2013-03-01 14:30:00,44.8,20.7,30.33,NNE,13,8.0,23.0,38,0.00,CLR,OVC,0.00,0.0,WeatherDisplay:10.37,2013-03-01 14:30:00,
2013-03-01 14:45:00,44.2,18.9,30.33,NNE,12,13.0,26.0,36,0.00,CLR,OVC,0.00,0.0,WeatherDisplay:10.37,2013-03-01 14:45:00,
2013-03-01 15:00:00,44.1,18.1,30.33,NNE,12,7.0,23.0,35,0.00,CLR,OVC,0.00,0.0,WeatherDisplay:10.37,2013-03-01 15:00:00,
2013-03-01 15:15:00,43.7,16.4,30.33,NNE,28,8.0,21.0,33,0.00,CLR,OVC,0.00,0.0,WeatherDisplay:10.37,2013-03-01 15:15:00,
2013-03-01 15:30:00,43.3,16.8,30.33,NNE,29,5.0,21.0,34,0.00,CLR,OVC,0.00,0.0,WeatherDisplay:10.37,2013-03-01 15:30:00,
2013-03-01 15:45:00,43.0,17.2,30.33,NNE,13,3.0,25.0,35,0.00,CLR,OVC,0.00,0.0,WeatherDisplay:10.37,2013-03-01 15:45:00,
2013-03-01 16:00:00,42.8,17.0,30.36,NNE,25,9.0,16.0,35,0.00,CLR,OVC,0.00,0.0,WeatherDisplay:10.37,2013-03-01 16:00:00,
2013-03-01 16:15:00,42.6,15.4,30.33,NNE,21,8.0,21.0,33,0.00,CLR,OVC,0.00,0.0,WeatherDisplay:10.37,2013-03-01 16:15:00,
2013-03-01 16:30:00,42.6,16.2,30.33,North,3,2.0,21.0,34,0.00,CLR,OVC,0.00,0.0,WeatherDisplay:10.37,2013-03-01 16:30:00,
2013-03-01 16:45:00,42.4,16.0,30.33,North,10,6.0,18.0,34,0.00,CLR,OVC,0.00,0.0,WeatherDisplay:10.37,2013-03-01 16:45:00,
2013-03-01 17:00:00,42.3,15.2,30.33,NE,34,6.0,15.0,33,0.00,CLR,OVC,0.00,0.0,WeatherDisplay:10.37,2013-03-01 17:00:00,
2013-03-01 17:15:00,42.1,14.3,30.33,NNE,19,9.0,23.0,32,0.00,CLR,OVC,0.00,0.0,WeatherDisplay:10.37,2013-03-01 17:15:00,
2013-03-01 17:30:00,41.9,14.8,30.33,ENE,58,5.0,21.0,33,0.00,,OVC,0.00,0.0,WeatherDisplay:10.37,2013-03-01 17:30:00,
2013-03-01 17:45:00,41.7,14.7,30.36,NNE,20,8.0,28.0,33,0.00,CLR,OVC,0.00,0.0,WeatherDisplay:10.37,2013-03-01 17:45:00,
2013-03-01 18:00:00,41.6,15.2,30.30,NNE,19,5.0,13.0,34,0.00,CLR,OVC,0.00,0.0,WeatherDisplay:10.37,2013-03-01 18:00:00,
2013-03-01 18:15:00,41.5,15.9,30.33,North,11,6.0,12.0,35,0.00,CLR,OVC,0.00,0.0,WeatherDisplay:10.37,2013-03-01 18:15:00,
2013-03-01 18:30:00,41.5,14.5,30.33,NNE,26,7.0,18.0,33,0.00,CLR,OVC,0.00,0.0,WeatherDisplay:10.37,2013-03-01 18:30:00,
2013-03-01 18:45:00,41.7,15.4,30.33,NNE,18,6.0,15.0,34,0.00,CLR,OVC,0.00,0.0,WeatherDisplay:10.37,2013-03-01 18:45:00,
2013-03-01 19:00:00,41.7,15.4,30.33,NNE,30,6.0,21.0,34,0.00,CLR,OVC,0.00,0.0,WeatherDisplay:10.37,2013-03-01 19:00:00,
2013-03-01 19:15:00,41.5,15.2,30.33,NNE,18,8.0,17.0,34,0.00,CLR,OVC,0.00,0.0,WeatherDisplay:10.37,2013-03-01 19:15:00,
2013-03-01 19:30:00,41.5,15.2,30.33,NE,42,5.0,21.0,34,0.00,CLR,OVC,0.00,0.0,WeatherDisplay:10.37,2013-03-01 19:30:00,
2013-03-01 19:45:00,41.2,14.9,30.33,NE,34,3.0,15.0,34,0.00,CLR,OVC,0.00,0.0,WeatherDisplay:10.37,2013-03-01 19:45:00,
2013-03-01 20:00:00,41.0,14.7,30.33,NNE,15,12.0,18.0,34,0.00,,OVC,0.00,0.0,WeatherDisplay:10.37,2013-03-01 20:00:00,
2013-03-01 20:15:00,40.8,14.6,30.33,NNE,16,5.0,20.0,34,0.00,CLR,OVC,0.00,0.0,WeatherDisplay:10.37,2013-03-01 20:15:00,
2013-03-01 20:30:00,40.6,15.1,30.33,NNE,23,3.0,15.0,35,0.00,CLR,OVC,0.00,0.0,WeatherDisplay:10.37,2013-03-01 20:30:00,
2013-03-01 20:45:00,40.5,15.6,30.33,NNE,13,8.0,21.0,36,0.00,CLR,OVC,0.00,0.0,WeatherDisplay:10.37,2013-03-01 20:45:00,
2013-03-01 21:00:00,40.1,15.9,30.33,NE,37,6.0,22.0,37,0.00,CLR,OVC,0.00,0.0,WeatherDisplay:10.37,2013-03-01 21:00:00,
2013-03-01 21:15:00,39.9,15.7,30.33,NNE,31,6.0,15.0,37,0.00,CLR,OVC,0.00,0.0,WeatherDisplay:10.37,2013-03-01 21:15:00,
2013-03-01 21:30:00,39.7,16.2,30.36,North,4,6.0,15.0,38,0.00,CLR,OVC,0.00,0.0,WeatherDisplay:10.37,2013-03-01 21:30:00,
2013-03-01 21:45:00,39.6,16.6,30.36,NNE,15,7.0,13.0,39,0.00,CLR,OVC,0.00,0.0,WeatherDisplay:10.37,2013-03-01 21:45:00,
2013-03-01 22:00:00,39.6,16.0,30.36,North,11,6.0,14.0,38,0.00,CLR,OVC,0.00,0.0,WeatherDisplay:10.37,2013-03-01 22:00:00,
2013-03-01 22:15:00,39.4,16.4,30.36,NNE,17,5.0,18.0,39,0.00,CLR,OVC,0.00,0.0,WeatherDisplay:10.37,2013-03-01 22:15:00,
2013-03-01 22:30:00,39.2,16.3,30.36,NNE,18,5.0,22.0,39,0.00,CLR,OVC,0.00,0.0,WeatherDisplay:10.37,2013-03-01 22:30:00,
2013-03-01 22:45:00,38.8,16.5,30.36,NNE,17,3.0,18.0,40,0.00,CLR,OVC,0.00,0.0,WeatherDisplay:10.37,2013-03-01 22:45:00,
2013-03-01 23:00:00,38.7,16.4,30.36,NNE,17,7.0,21.0,40,0.00,CLR,OVC,0.00,0.0,WeatherDisplay:10.37,2013-03-01 23:00:00,
2013-03-01 23:15:00,38.5,16.2,30.36,NNE,24,6.0,18.0,40,0.00,CLR,OVC,0.00,0.0,WeatherDisplay:10.37,2013-03-01 23:15:00,
2013-03-01 23:30:00,38.1,15.9,30.36,NE,38,5.0,18.0,40,0.00,CLR,OVC,0.00,0.0,WeatherDisplay:10.37,2013-03-01 23:30:00,
2013-03-01 23:45:00,38.1,15.9,30.36,NNE,29,3.0,21.0,40,0.00,CLR,OVC,0.00,0.0,WeatherDisplay:10.37,2013-03-01 23:45:00,